Location: *
(34.6903°N, 135.5184°E)
Time: 21:06:43
(UTC+00:00)

H-2A R/B - Pass Details

Date: 22 September 2019
Orbit: 529 x 654 km, 98.3° (Epoch: 14 October)

Event Time Altitude Azimuth Distance (km) Brightness Sun altitude
Rises 19:44:47 0° 355° (N) 2,673 5.9 -13.4°
Reaches altitude 10° 19:47:17 10° 338° (NNW) 1,781 4.8 -12.9°
Maximum altitude 19:50:06 20° 290° (WNW) 1,272 3.7 -12.3°
Enters shadow 19:51:04 18° 270° (W) 1,344 3.7 -12.1°
